[TLELIST] Archives

 

Current TLEs

September 9th 2007 PDT

HST 1 20580U 90037B 07250.49803622 .00000303 00000-0 10594-4 0 9553 2 20580 028.4681 013.3687 0003901 247.9232 112.0938 15.00275672752335 ISS (ZARYA) 1 25544U 98067A 07251.36990321 .00016489 00000-0 10457-3 0 9424 2 25544 051.6365 034.6354 0008625 345.0972 060.2578 15.76650530503907 CXO 1 25867U 99040B 07252.29166667 .00000148 00000-0 10000-3 0 1101 2 25867 062.3226 087.4181 6350745 282.7376 000.4915 00.37803070 2565 ____________________________________________________________________ These 2-Line ...Continue Reading

Current TLEs

September 8th 2007 PDT

HST 1 20580U 90037B 07250.49803622 .00000303 00000-0 10594-4 0 9553 2 20580 028.4681 013.3687 0003901 247.9232 112.0938 15.00275672752335 ISS (ZARYA) 1 25544U 98067A 07251.36990321 .00016489 00000-0 10457-3 0 9424 2 25544 051.6365 034.6354 0008625 345.0972 060.2578 15.76650530503907 CXO 1 25867U 99040B 07252.29166667 .00000148 00000-0 10000-3 0 1101 2 25867 062.3226 087.4181 6350745 282.7376 000.4915 00.37803070 2565 ____________________________________________________________________ These 2-Line ...Continue Reading

Current TLEs

September 7th 2007 PDT

HST 1 20580U 90037B 07248.76842281 +.00000343 +00000-0 +13721-4 0 09632 2 20580 028.4678 024.6464 0003908 230.0156 130.0093 15.00275322752079 ISS (ZARYA) 1 25544U 98067A 07250.49337940 .00016222 00000-0 10309-3 0 9374 2 25544 051.6354 039.1525 0008586 341.2535 125.6861 15.76619516503768 CXO 1 25867U 99040B 07249.58333333 .00000098 00000-0 10000-3 0 1097 2 25867 062.3188 087.4735 6345872 282.8123 351.7340 00.37798799 2557 ____________________________________________________________________ These 2-Line ...Continue Reading

Current TLEs

September 6th 2007 PDT

HST 1 20580U 90037B 07249.43365858 .00000345 00000-0 13873-4 0 9547 2 20580 028.4678 020.3096 0003918 237.0242 122.9970 15.00275578752175 ISS (ZARYA) 1 25544U 98067A 07249.34734486 .00016536 00000-0 10518-3 0 9305 2 25544 051.6356 045.0635 0008528 337.1420 100.7838 15.76582181503586 CXO 1 25867U 99040B 07249.58333333 .00000098 00000-0 10000-3 0 1097 2 25867 062.3188 087.4735 6345872 282.8123 351.7340 00.37798799 2557 ____________________________________________________________________ These 2-Line ...Continue Reading

Current TLEs

September 5th 2007 PDT

HST 1 20580U 90037B 07247.83709252 .00000340 00000-0 13519-4 0 9530 2 20580 028.4679 030.7196 0003943 220.5921 139.4373 15.00274982751932 ISS (ZARYA) 1 25544U 98067A 07248.52986472 .00016132 00000-0 10285-3 0 9244 2 25544 051.6355 049.2762 0008454 333.4624 141.5963 15.76552475503456 CXO 1 25867U 99040B 07246.95833333 .00000132 00000-0 10000-3 0 1088 2 25867 062.3046 087.5299 6343627 282.8848 354.3131 00.37800726 2546 ____________________________________________________________________ These 2-Line ...Continue Reading

Current TLEs

September 4th 2007 PDT

HST 1 20580U 90037B 07245.84138469 +.00000349 +00000-0 +14192-4 0 09644 2 20580 028.4675 043.7331 0003951 200.6995 159.3435 15.00274285751635 ISS (ZARYA) 1 25544U 98067A 07247.51305353 .00015068 00000-0 96511-4 0 9182 2 25544 051.6360 054.5179 0008257 329.1059 131.1050 15.76514740503295 CXO 1 25867U 99040B 07246.95833333 .00000132 00000-0 10000-3 0 1088 2 25867 062.3046 087.5299 6343627 282.8848 354.3131 00.37800726 2546 ____________________________________________________________________ These 2-Line ...Continue Reading

Current TLEs

September 3rd 2007 PDT

HST 1 20580U 90037B 07244.91005417 +.00000340 +00000-0 +13529-4 0 09528 2 20580 028.4674 049.8058 0003968 191.7285 168.3214 15.00273872751497 ISS (ZARYA) 1 25544U 98067A 07246.36907551 .00012087 00000-0 78420-4 0 9112 2 25544 051.6358 060.4157 0008327 323.0488 120.2194 15.76466463503118 CXO 1 25867U 99040B 07246.95833333 .00000132 00000-0 10000-3 0 1088 2 25867 062.3046 087.5299 6343627 282.8848 354.3131 00.37800726 2546 ____________________________________________________________________ These 2-Line ...Continue Reading

Current TLEs

September 2nd 2007 PDT

HST 1 20580U 90037B 07244.84353059 .00000339 00000-0 13386-4 0 9516 2 20580 028.4674 050.2400 0003968 191.2556 168.7946 15.00273828751486 ISS (ZARYA) 1 25544U 98067A 07245.35264343 .00011575 00000-0 75360-4 0 9048 2 25544 051.6358 065.6539 0008452 320.9594 109.9083 15.76438112502954 CXO 1 25867U 99040B 07244.33333333 .00000243 00000-0 10000-3 0 1075 2 25867 062.2828 087.6120 6343106 282.9112 356.9693 00.37807132 2532 ____________________________________________________________________ These 2-Line ...Continue Reading

Current TLEs

September 1st 2007 PDT

HST 1 20580U 90037B 07243.57958164 .00000334 00000-0 13066-4 0 9502 2 20580 028.4673 058.4831 0003989 179.7104 180.3486 15.00273329751290 ISS (ZARYA) 1 25544U 98067A 07244.53398294 .00012195 00000-0 79238-4 0 8990 2 25544 051.6354 069.8724 0008339 317.3222 144.3989 15.76420517502828 CXO 1 25867U 99040B 07244.33333333 .00000243 00000-0 10000-3 0 1075 2 25867 062.2828 087.6120 6343106 282.9112 356.9693 00.37807132 2532 ____________________________________________________________________ These 2-Line ...Continue Reading

Current TLEs

August 31st 2007 PDT

HST 1 20580U 90037B 07241.84996683 .00000325 00000-0 12318-4 0 9495 2 20580 028.4673 069.7592 0003978 161.1626 198.9110 15.00272658751036 ISS (ZARYA) 1 25544U 98067A 07243.51841635 .00014255 00000-0 91969-4 0 8926 2 25544 051.6348 075.1071 0008484 311.2752 143.1703 15.76403194502663 CXO 1 25867U 99040B 07241.70833333 +.00000312 +00000-0 +00000-0 0 01037 2 25867 062.2596 087.6929 6341209 282.9081 359.7119 00.37808800002535 ____________________________________________________________________ These 2-Line ...Continue Reading
  • This mailing list is a public mailing list - anyone may join or leave, at any time.
  • This mailing list is announce-only.

International Space Station (ISS) / Hubble Space Telescope (HST) / Chandra X-Ray Observatory Orbital Data via EMAIL

Privacy Policy:

Private list